Preview of NWS' New Version of Forecast
This preview is not operational and should not be used for support decisions.

Regional Weather Roundup (RWR)

Issued by National Weather Service (NWS)

                            
000
ASUS43 KMKX 222021
RWRWI 

WISCONSIN REGIONAL WEATHER ROUNDUP
NATIONAL WEATHER SERVICE MILWAUKEE/SULLIVAN WI
300 PM CDT MON JUL 22 2019

NOTE: "FAIR" INDICATES FEW OR NO CLOUDS BELOW 12,000 FEET WITH NO
SIGNIFICANT WEATHER AND/OR OBSTRUCTIONS TO VISIBILITY.

WIZ001-002-006>008-014>016-023>028-222100-
NORTHWEST WISCONSIN
  
CITY           SKY/WX    TMP DP  RH WIND       PRES   REMARKS
SUPERIOR ARPT  PTSUNNY   79  55  43 NW10G17   30.15F HX  80           
ASHLAND        FAIR      79  55  43 NW9       30.14F                  
HAYWARD        FAIR      77  53  43 VRB7      30.18F                  
SIREN          FAIR     N/A N/A N/A NW9       30.19F                  
CUMBERLAND     NOT AVBL                                               
RICE LAKE      FAIR      75  52  44 NW8       30.19F                  
CHETEK         PTSUNNY   74  54  49 NW5       30.19S                  
LADYSMITH      FAIR      76  51  40 NW13      30.18F                  
EAU CLAIRE     FAIR      77  51  40 NW10      30.16F                  
MENOMONIE      FAIR      74  49  41 NW8G16    30.18F                  
NEW RICHMOND   FAIR      76  48  37 N6        30.21F                  
OSCEOLA        FAIR      76  50  39 NW12      30.23F                  
$$
 
WIZ003>005-009-010-017-018-222100-
NORTH CENTRAL WISCONSIN
  
CITY           SKY/WX    TMP DP  RH WIND       PRES   REMARKS
MANITOWISH WTR PTSUNNY   73  51  46 NW12G18   30.15S                  
ARBOR VITAE    FAIR      77  52  41 N14G20    30.14S                  
WOODRUFF       FAIR      77  52  41 N14G20    30.14S                  
RHINELANDER    FAIR      75  47  36 NW10G22   30.14F                  
EAGLE RIVER    FAIR      75  44  32 NW17      30.12F                  
LAND O LAKES   FAIR      75  45  34 N16G25    30.14F                  
PHILLIPS       PTSUNNY   75  53  45 NW7       30.15F                  
TOMAHAWK       PTSUNNY   74  48  39 NW10G17   30.15S                  
MEDFORD        PTSUNNY   71  51  47 NW13G21   30.16R                  
MERRILL        FAIR      76  52  43 N13       30.14S                  
$$
 
WIZ029-030-035-036-043>047-222100-
CENTRAL WISCONSIN
  
CITY           SKY/WX    TMP DP  RH WIND       PRES   REMARKS
WAUSAU         FAIR      75  47  36 N9G18     30.12F                  
MOSINEE        MOSUNNY   75  48  38 N8        30.15F                  
MARSHFIELD     FAIR      74  51  44 NW13G18   30.15S                  
STEVENS POINT  FAIR      74  49  40 N10       30.13F                  
WAUPACA        NOT AVBL                                               
WAUTOMA        FAIR      77  52  41 N12       30.12F                  
WISC RAPIDS    NOT AVBL                                               
CAMP DOUGLAS   MOSUNNY   77  55  47 N15       30.14S                  
$$
 
WIZ011>013-019>022-031-037>040-048>050-222100-
NORTHEAST WISCONSIN
  
CITY           SKY/WX    TMP DP  RH WIND       PRES   REMARKS
ANTIGO         PTSUNNY   73  49  42 N9        30.13F                  
SHAWANO        FAIR      78  46  31 N9        30.09F                  
OCONTO         FAIR      77  47  34 NW7       30.06F                  
STURGEON BAY   FAIR      73  52  47 VRB6      30.08F                  
GREEN BAY      FAIR      77  51  40 NW12      30.09S                  
MANITOWOC      FAIR      74  52  46 N14G20    30.08F                  
APPLETON       MOSUNNY   73  39  29 N10G16    30.10S                  
CLINTONVILLE   FAIR      78  45  31 N8        30.09F                  
OSHKOSH        FAIR      75  51  43 NW9G21    30.10S                  
$$
 
WIZ032>034-041-042-053>061-222100-
SOUTHWEST WISCONSIN
  
CITY           SKY/WX    TMP DP  RH WIND       PRES   REMARKS
LA CROSSE      FAIR      80  48  32 N12       30.16F                  
SPARTA         FAIR      74  49  40 NW7G16    30.16F                  
VIROQUA        FAIR      73  52  48 N9        30.17F                  
BOSCOBEL       FAIR      79  55  43 N7        30.14F                  
PRAIRIE DU CHI FAIR      79  48  34 NW13      30.15S                  
PLATTEVILLE    FAIR      74  57  54 N12       30.14S                  
$$

WIZ056-057-062-063-064-067-068-222100-
SOUTH CENTRAL WISCONSIN
  
CITY           SKY/WX    TMP DP  RH WIND       PRES   REMARKS
REEDSBURG      FAIR      75  51  43 N8        30.13S                  
BARABOO/DELLS  FAIR      75  46  36 N9G18     30.13S                  
LONE ROCK      FAIR      76  53  44 NW10      30.13S                  
MINERAL POINT  FAIR      77  54  44 NW12G21   30.14F                  
MADISON        PTSUNNY   76  51  41 N16G25    30.11S                  
MIDDLETON      FAIR      76  53  44 N13G18    30.12F                  
WATERTOWN      NOT AVBL                                               
MONROE         FAIR      73  51  46 N16       30.12S                  
JANESVILLE     MOSUNNY   77  54  44 N14       30.10F                  
$$
 
WIZ051-052-058>065-066-070>072-222100-
SOUTHEAST WISCONSIN
  
CITY           SKY/WX    TMP DP  RH WIND       PRES   REMARKS
MILWAUKEE      FAIR      72  52  49 NE15      30.09R                  
WAUKESHA       PTSUNNY   73  50  43 N13G22    30.10F                  
MILWAUKEE/TIMM MOSUNNY   73  46  38 NE7       30.10R                  
RACINE         FAIR      73  53  49 NE14      30.10S                  
KENOSHA        FAIR      75  54  47 NE13G20   30.09S                  
FOND DU LAC    FAIR      77  51  40 N13       30.11S                  
SHEBOYGAN      FAIR      76  49  38 N13       30.08F                  
WEST BEND      FAIR      73  46  38 N10       30.09S                  
JUNEAU         FAIR      73  51  46 N7G16     30.12S                  
$$

LSZ147-162-222100-
LAKE SUPERIOR
  
STATION/POSITION TIME  TEMP    WIND        PRES    WAVE
                       AIR SEA DIR/SP/G            HT/PER
                 (UTC) (F)     (DEG/KT/KT) (MB)    (FT/S)
W MID LAKE BUOY  1950   56 49  250/  8/ 10 1019.4F   1/ 4
$$
 
LMZ867-665-643>646-222100-
LAKE MICHIGAN
  
STATION/POSITION TIME  TEMP    WIND        PRES    WAVE
                       AIR SEA DIR/SP/G            HT/PER
                 (UTC) (F)     (DEG/KT/KT) (MB)    (FT/S)
CHAMBERS ISLAND  1940   75     200/  6/  8 1017.3F
S GREEN BAY BUOY 2000   77 74  310/  6/  8 1018.5
N MID LAKE BUOY  2000   68     230/  6/  8 1017.4
NORTHPORT PIER   1940   75     260/  3/  6 1017.3F
KEWAUNEE LAKESHO 1936   72      CALM  /  6 1018.0F
SHEBOYGAN LAKESH 2000   65      20/  6/  7 1018.6F
ATWATER BUOY     2000   67 66   20/  6/ 10 1019.0    3/ 5
MILWAUKEE LAKESH 1950   66      30/  7/  8   N/A
S MID LAKE BUOY  2000   66 68  350/ 19/ 25 1018.0
KENOSHA   LAKESH 2000   67      30/ 13/ 14 1018.6
$$

TC  - TEMPERATURE IN CELSIUS
VSB - VISIBILITY IN STATUTE MILES
WCI - WIND CHILL INDEX
HX  - HEAT INDEX